#timestamp,LO_Frequency,Hit 
1500656415.7,286047008.3,N
1500656435.5,286047002.2,N
1500656455.3,286046999.3,N
1500656475.2,286046998.0,N
1500656495.9,286046994.8,N
1500656515.7,286046995.3,N
1500656535.6,286046993.7,N
1500656555.4,286046991.3,N
1500656575.2,286046987.9,N
1500656595.0,286046994.0,N
1500656596.0,286046994.0,N
1500656615.8,286046996.3,N
1500656635.6,286046991.2,N
1500656655.4,286046991.2,N
1500656675.3,286046992.2,N
1500656695.1,286046991.8,N
1500656715.8,286046991.1,N
1500656735.7,286047001.2,N
1500656755.5,286047017.2,N
1500656775.3,286047031.6,N
1500656795.2,286047043.1,N
1500656815.9,286047051.2,N
1500656835.7,286047053.6,N
1500656855.6,286047046.5,N
1500656875.4,286047040.9,N
1500656895.2,286047044.5,N
1500656915.1,286047042.1,N
1500656916.0,286047042.1,N
1500656935.8,286047044.8,N
1500656955.6,286047048.3,N
1500656975.5,286047047.9,N
1500656995.3,286047054.2,N
1500657015.1,286047062.0,N
1500657035.9,286047061.7,N
1500657055.7,286047066.6,N
1500657075.5,286047070.4,N
1500657095.3,286047073.4,N
1500657115.2,286047080.1,N
1500657135.0,286047079.9,N
1500657135.9,286047079.9,N
1500657155.7,286047080.7,N
1500657175.6,286047080.5,N
1500657195.4,286047077.6,N
1500657215.2,286047079.0,N
1500657235.1,286047074.5,N
1500657236.0,286047074.5,N
1500657255.8,286047068.0,N
1500657275.6,286047073.7,N
1500657295.5,286047082.5,N
1500657315.3,286047080.6,N
1500657335.1,286047082.9,N
1500657355.9,286047086.6,N
1500657375.7,286047089.5,N
1500657395.5,286047105.0,N
1500657415.4,286047116.3,N
1500657435.2,286047122.0,N
1500657455.0,286047123.8,N
1500657455.9,286047123.8,N
1500657475.8,286047125.3,N
1500657495.6,286047133.1,N
1500657515.4,286047135.0,N
1500657535.3,286047129.5,N
1500657555.1,286047138.1,N
1500657556.0,286047138.1,N
1500657575.8,286047143.5,N
1500657595.7,286047149.2,N
1500657615.5,286047159.9,N
1500657635.3,286047160.1,N
1500657655.2,286047157.7,N
1500657675.9,286047157.5,N
1500657695.7,286047153.4,N
1500657715.6,286047154.3,N
1500657735.4,286047151.1,N
1500657755.2,286047152.4,N
1500657775.0,286047157.7,N
1500657776.0,286047157.7,N
1500657795.8,286047161.6,N
1500657815.6,286047153.7,N
1500657835.4,286047147.0,N
1500657855.3,286047148.8,N
1500657875.1,286047151.8,N
1500657895.8,286047145.3,N
1500657915.7,286047154.3,N
1500657935.5,286047155.9,N
1500657955.3,286047157.7,N
1500657975.2,286047165.5,N
1500657995.9,286047168.9,N
1500658015.7,286047164.8,N
1500658035.6,286047167.4,N
1500658055.4,286047166.6,N
1500658075.2,286047158.6,N
1500658095.1,286047157.3,N
1500658096.0,286047157.3,N
1500658115.8,286047149.5,N
1500658135.6,286047148.0,N
1500658155.5,286047146.7,N
1500658175.3,286047143.6,N
1500658195.1,286047147.4,N
1500658215.9,286047142.0,N
1500658235.7,286047135.9,N
1500658255.5,286047126.5,N
1500658275.3,286047138.4,N
1500658295.2,286047147.8,N
1500658315.0,286047146.5,N
1500658315.9,286047146.5,N
1500658335.8,286047147.2,N
1500658355.6,286047153.8,N
1500658375.4,286047150.7,N
1500658395.2,286047157.6,N
1500658415.1,286047156.9,N
1500658416.0,286047156.9,N
1500658435.8,286047147.1,N
1500658455.6,286047138.6,N
1500658475.5,286047129.7,N
1500658495.3,286047141.6,N
1500658515.1,286047145.3,N
1500658535.9,286047155.3,N
1500658555.7,286047149.3,N
1500658575.5,286047141.4,N
1500658595.4,286047138.2,N
1500658615.2,286047145.1,N
1500658635.0,286047151.5,N
1500658635.9,286047151.5,N
1500658655.8,286047146.7,N
1500658675.6,286047144.2,N
1500658695.4,286047137.4,N
1500658715.3,286047134.4,N
1500658735.1,286047127.5,N
1500658736.0,286047127.5,N
1500658755.8,286047123.3,N
1500658775.7,286047126.1,N
1500658795.5,286047134.4,N
1500658815.3,286047137.9,N
1500658835.2,286047145.0,N
1500658855.9,286047141.3,N
1500658875.7,286047151.0,N
1500658895.5,286047151.9,N
1500658915.4,286047149.0,N
1500658935.2,286047150.4,N
1500658955.0,286047154.3,N
1500658955.9,286047154.3,N
1500658975.8,286047150.1,N
1500658995.6,286047159.9,N
1500659015.4,286047157.1,N
1500659035.3,286047153.7,N
1500659055.1,286047154.8,N
1500659075.8,286047160.1,N
1500659095.7,286047156.8,N
1500659115.5,286047159.1,N
1500659135.3,286047154.9,N
1500659155.2,286047163.5,N
1500659175.9,286047159.8,N
1500659195.7,286047166.1,N
1500659215.6,286047171.7,N
1500659235.4,286047175.5,N
1500659255.2,286047173.3,N
1500659275.1,286047174.4,N
1500659276.0,286047174.4,N
1500659295.8,286047164.2,N
1500659315.6,286047160.9,N
1500659335.5,286047153.5,N
1500659355.3,286047162.0,N
1500659375.1,286047173.5,N
1500659395.9,286047182.7,N
1500659415.7,286047176.4,N
1500659435.5,286047179.3,N
1500659455.4,286047178.4,N
1500659475.2,286047172.4,N
1500659495.0,286047160.2,N
1500659495.9,286047160.2,N
1500659515.8,286047151.9,N
1500659535.6,286047145.2,N
1500659555.4,286047138.2,N
1500659575.2,286047129.4,N
1500659595.1,286047126.8,N
1500659596.0,286047126.8,N
1500659615.8,286047124.9,N
1500659635.6,286047130.3,N
1500659655.5,286047121.4,N
1500659675.3,286047117.3,N
1500659695.1,286047113.7,N
1500659715.9,286047111.7,N
1500659735.7,286047116.5,N
1500659755.5,286047113.4,N
1500659775.4,286047117.8,N
1500659795.2,286047110.2,N
1500659815.0,286047115.1,N
1500659815.9,286047115.1,N
1500659835.8,286047127.3,N
1500659855.6,286047133.3,N
1500659875.4,286047127.7,N
1500659895.3,286047118.5,N
1500659915.1,286047112.7,N
1500659916.0,286047112.7,N
1500659935.8,286047107.1,N
1500659955.7,286047105.8,N
1500659975.5,286047103.1,N
1500659995.3,286047100.5,N
